Temp
58 58 58 57 57 57 57 57 58 58 58 59 59 58 58 58 58 59 58 58 57 57 58 58 58 59 59 59 59 59 59 59 59 59 60 60 60 60 60 60 59 59 58 58 58 58 58 58 57 57 58 57 56 56 56 57 57 55 54 55 55 55
57 58 57 57 57 57 57 57 57 57 58 58 58 58 58 58 57 58 58 57 58 57 59 58 58 58 58 58 58 58 58 58 58 58 58 58 59 59 58 57 57 57 57 57 57 57 57 57 57 56 55 54 53 53 53 54 54 53 52 53 54 54
57 57 57 56 56 57 57 57 57 57 57 57 58 57 57 56 56 57 56 57 57 57 57 57 57 57 58 58 57 58 57 57 57 57 56 56 56 56 56 56 56 56 56 56 56 55 55 56 56 56 55 54 53 53 52 52 52 51 51 51 51 52
57 56 56 57 57 57 57 57 57 56 56 56 56 56 55 55 55 55 56 56 56 55 56 56 56 56 56 57 56 55 55 55 55 55 55 55 56 56 55 55 55 55 55 54 54 54 54 54 55 55 54 53 52 51 51 51 50 50 49 49 49 50
57 57 57 56 56 56 56 56 56 55 55 55 55 54 54 54 55 55 56 56 55 55 55 55 54 55 55 54 54 53 53 53 54 54 53 54 54 55 54 54 53 53 53 52 52 52 52 51 51 51 51 50 50 49 49 49 49 48 47 47 48 48
56 57 56 56 55 55 55 55 55 55 54 54 54 53 53 53 54 55 55 55 54 54 54 54 53 53 53 53 52 51 52 52 52 52 52 52 53 53 53 53 52 52 51 51 51 51 50 49 49 49 48 48 48 47 46 47 47 47 47 46 46 46
56 56 55 55 54 55 55 54 54 54 53 52 53 52 53 53 54 54 54 55 54 54 53 53 53 52 51 51 52 50 51 50 51 51 51 51 51 51 51 51 51 51 51 50 50 50 50 49 49 48 47 47 47 46 45 45 45 45 45 45 45 42
55 54 54 54 54 54 53 53 53 53 52 51 51 52 52 52 53 53 53 53 53 52 52 52 51 51 51 51 51 50 50 50 50 50 50 50 49 49 49 50 49 50 49 50 50 50 49 49 48 47 46 46 46 46 45 44 44 44 44 44 44 44
54 53 53 53 52 52 52 52 52 52 51 50 50 50 50 51 52 52 52 52 52 51 50 50 50 50 50 50 50 50 50 49 49 48 48 48 48 48 48 48 48 48 48 48 49 48 48 48 48 48 47 46 46 46 44 43 43 42 42 42 42 42
53 52 52 52 51 51 51 51 51 51 50 49 50 50 49 49 51 51 51 51 49 49 48 49 49 49 48 48 49 48 48 48 47 47 47 47 47 47 47 47 46 46 47 48 48 48 48 47 46 46 46 46 46 45 43 42 41 40 41 41 41 41
52 51 51 51 51 51 51 51 51 51 50 49 49 49 48 49 49 50 49 48 47 47 47 48 47 48 48 47 47 46 45 45 45 45 45 46 46 46 46 46 46 46 46 47 47 47 47 46 45 46 45 45 44 44 42 42 41 40 40 40 41 41
52 51 50 50 51 50 50 50 50 49 49 48 48 48 47 48 48 48 48 47 46 46 47 47 46 46 46 45 44 44 43 44 43 43 44 44 44 44 45 45 45 46 46 46 46 46 46 46 47 43 40 40 42 42 41 41 40 40 40 40 39 40
51 50 49 49 49 49 49 49 49 49 48 47 47 46 47 47 47 47 46 46 46 46 46 45 45 45 44 44 43 42 41 42 42 42 42 42 43 43 44 44 44 45 45 45 45 45 45 46 46 42 43 42 42 41 41 40 40 40 40 40 39 39
49 49 48 48 48 48 48 47 47 47 46 46 45 45 45 45 45 46 45 45 45 44 44 43 43 43 43 42 41 41 41 41 41 40 41 41 41 42 43 42 43 44 44 45 45 44 45 45 42 43 43 42 42 41 40 40 40 40 40 40 40 40
49 49 48 47 47 46 46 46 46 45 45 44 44 44 44 44 44 45 44 44 43 43 43 42 42 42 42 41 40 41 40 38 39 38 38 38 41 41 42 42 42 42 43 43 43 43 44 44 43 43 42 42 41 41 40 40 41 41 40 41 41 41
49 48 47 46 46 45 45 45 45 44 44 44 44 44 44 44 44 44 43 43 42 42 42 42 41 40 41 40 39 39 39 37 38 38 39 38 39 40 39 40 40 41 42 42 41 41 42 43 42 42 42 41 41 41 40 40 40 40 40 41 41 41
47 46 45 45 45 45 44 44 44 44 43 44 43 44 43 44 43 42 42 42 42 41 40 40 40 39 39 39 38 36 36 37 36 36 37 38 38 37 37 39 38 39 37 40 40 40 40 41 41 41 41 41 41 41 40 40 40 40 40 41 41 41
46 46 45 45 44 44 44 43 44 43 43 43 43 43 42 42 41 41 40 40 40 39 40 39 38 38 38 37 36 35 35 35 35 35 37 37 38 37 38 38 37 37 36 37 37 38 39 41 41 41 40 40 40 40 38 38 39 39 40 40 41 41
46 45 44 43 43 42 42 42 43 43 42 41 41 41 41 41 40 40 39 39 39 38 38 38 37 35 35 35 34 33 34 34 34 35 36 35 36 36 36 36 36 37 37 36 36 36 38 39 39 40 39 39 40 39 37 36 37 37 38 39 40 41
44 44 43 41 41 41 41 42 42 42 41 40 40 41 39 39 38 38 38 38 38 37 37 36 35 33 32 32 31 32 32 33 34 35 36 35 34 34 35 36 36 37 37 36 35 36 36 36 37 38 39 39 39 38 36 36 36 36 37 38 39 40
42 42 42 41 39 39 40 40 41 40 39 39 39 39 37 36 36 36 36 36 37 36 35 34 33 31 31 30 30 30 30 31 32 34 34 34 34 34 36 36 36 36 36 36 35 35 35 36 37 39 39 40 39 38 36 36 36 35 36 37 38 40
40 40 39 38 37 38 38 39 38 36 38 38 37 35 34 34 34 35 35 35 35 33 32 31 30 29 29 28 29 29 30 32 32 32 32 32 33 35 36 36 35 33 34 36 36 36 37 37 37 38 39 40 40 39 37 36 35 35 35 36 36 36
40 38 36 36 36 36 36 37 37 36 36 35 33 31 31 32 33 33 32 33 32 31 30 29 29 27 27 28 28 29 30 30 30 30 31 31 33 33 33 32 32 34 35 37 36 36 36 37 36 37 39 40 40 40 38 36 35 35 35 35 35 35
36 35 34 33 32 32 32 33 33 34 34 31 28 29 30 30 30 30 30 29 28 27 27 26 26 27 27 27 28 27 27 29 29 30 30 31 32 30 30 31 33 35 36 37 37 37 37 38 37 38 39 40 40 40 40 37 36 36 35 34 34 35
34 33 32 31 30 29 28 28 28 29 29 26 26 27 28 28 28 28 27 26 25 25 24 25 25 25 26 26 27 26 26 28 28 28 29 30 30 30 30 31 33 33 34 35 38 38 38 38 39 39 38 39 40 40 40 39 37 37 36 34 33 33
33 31 30 28 28 26 24 24 24 25 25 23 26 26 27 27 25 25 24 24 24 23 24 24 25 25 26 26 26 26 26 27 27 28 29 30 30 31 31 32 32 33 33 33 35 36 38 38 40 39 38 38 39 40 40 40 39 39 35 35 34 35
31 29 27 26 25 24 22 22 21 22 21 23 25 25 24 22 21 22 22 22 23 23 23 24 24 25 26 25 26 25 26 26 26 26 28 29 29 30 30 31 32 32 32 33 32 34 36 37 37 38 38 37 37 39 39 39 39 39 38 35 34 35
28 26 24 23 22 21 21 20 20 19 21 24 23 22 21 20 19 20 21 22 22 22 23 23 24 25 24 24 26 25 26 25 26 26 27 28 28 29 29 30 30 30 30 30 32 32 33 34 35 35 36 37 37 37 38 38 37 36 35 34 34 34
24 24 23 21 20 19 19 19 20 21 22 21 20 19 19 18 20 20 21 20 21 22 23 22 23 24 24 24 25 25 25 26 26 25 25 26 27 27 27 27 28 28 28 29 29 30 31 31 33 33 35 36 36 37 37 36 36 35 35 35 35 35
22 21 21 19 19 18 18 19 20 19 18 18 18 17 17 18 19 19 19 20 21 22 23 22 23 22 22 23 22 23 23 24 25 24 24 24 24 24 24 25 25 26 27 27 27 28 28 29 30 32 32 33 34 35 35 34 34 34 34 34 34 34
18 18 18 18 17 16 17 18 19 17 16 16 16 16 15 16 17 18 19 20 21 21 23 21 20 20 21 20 21 22 23 22 22 23 23 24 26 26 25 24 25 26 26 27 26 26 25 27 27 29 33 32 33 32 31 31 32 33 33 34 35 34
16 16 16 16 16 15 16 17 16 15 15 14 15 15 13 14 15 17 18 20 20 20 19 18 19 19 20 20 19 20 21 25 26 25 23 23 26 28 29 29 26 26 27 26 27 28 26 25 28 32 32 32 32 33 33 33 34 34 34 34 35 34
13 13 14 15 14 15 16 14 14 13 13 13 13 13 12 13 15 17 18 18 17 17 16 17 18 18 18 18 19 19 19 19 21 25 26 26 26 27 28 28 29 29 29 28 26 27 31 31 31 31 32 32 32 33 33 33 34 34 34 35 33 31
12 12 12 13 12 13 13 11 12 11 11 12 11 12 12 13 14 14 14 15 14 15 16 16 16 16 17 17 18 17 17 17 16 17 23 25 25 25 26 26 26 27 28 29 28 27 27 29 31 31 31 31 32 32 32 33 33 33 33 34 34 30
14 13 12 12 12 11 10 9 10 10 9 10 10 12 11 10 10 9 10 11 13 14 14 15 15 15 15 15 14 14 15 14 14 13 13 17 22 23 24 24 26 27 27 27 28 28 28 28 29 30 30 30 30 31 31 32 33 33 34 34 31 30
13 12 11 11 9 8 9 7 8 8 8 9 9 9 7 6 6 6 9 10 10 10 12 13 13 13 13 13 13 13 12 13 13 12 12 12 13 16 20 23 24 25 25 26 27 27 27 27 27 28 29 29 30 30 31 31 31 33 34 32 29 30
10 10 10 9 7 7 6 5 6 8 8 8 6 5 4 4 5 6 8 9 10 10 10 11 11 11 10 10 10 11 11 11 12 12 12 12 11 11 12 14 17 21 24 22 23 24 25 26 27 27 28 28 29 30 31 31 28 26 27 29 30 31
8 8 8 6 6 5 4 4 7 7 6 5 3 3 3 4 5 5 7 8 9 9 9 9 9 9 9 9 9 10 10 11 11 11 11 12 12 12 12 13 15 16 19 20 21 23 24 24 25 26 27 28 29 29 30 24 23 24 25 27 29 30
MSLP
1018.71 1018.79 1018.87 1019.07 1019.15 1019.19 1019.31 1019.39 1019.43 1019.51 1019.55 1019.55 1019.59 1019.79 1019.99 1020.07 1020.15 1020.11 1020.31 1020.39 1020.55 1020.63 1020.63 1020.67 1020.71 1020.75 1020.79 1020.83 1020.83 1020.87 1020.87 1020.83 1020.79 1020.83 1020.83 1020.79 1020.75 1020.71 1020.67 1020.67 1020.63 1020.63 1020.63 1020.63 1020.63 1020.55 1020.43 1020.43 1020.43 1020.35 1020.23 1020.15 1020.11 1020.03 1019.91 1019.71 1019.63 1019.63 1019.55 1019.43 1019.39 1019.23
1018.95 1018.99 1019.07 1019.19 1019.31 1019.43 1019.51 1019.59 1019.63 1019.75 1019.79 1019.79 1019.91 1019.99 1020.07 1020.23 1020.31 1020.35 1020.51 1020.67 1020.75 1020.87 1020.83 1020.91 1020.91 1020.91 1020.99 1020.99 1020.99 1020.91 1020.91 1020.91 1020.95 1020.99 1020.99 1020.95 1020.99 1020.95 1020.95 1020.91 1020.83 1020.79 1020.75 1020.67 1020.59 1020.51 1020.43 1020.43 1020.39 1020.39 1020.43 1020.47 1020.39 1020.31 1020.15 1019.95 1019.91 1019.83 1019.67 1019.51 1019.39 1019.31
1019.23 1019.39 1019.47 1019.59 1019.67 1019.71 1019.71 1019.75 1019.91 1020.03 1020.07 1020.11 1020.15 1020.19 1020.35 1020.51 1020.63 1020.63 1020.75 1020.79 1020.95 1021.03 1021.19 1021.27 1021.23 1021.15 1021.07 1021.07 1021.11 1021.03 1021.07 1021.11 1021.15 1021.19 1021.27 1021.31 1021.27 1021.19 1021.15 1021.07 1021.03 1020.95 1020.91 1020.87 1020.79 1020.71 1020.63 1020.47 1020.35 1020.27 1020.27 1020.31 1020.35 1020.31 1020.19 1020.07 1020.03 1019.91 1019.71 1019.63 1019.43 1019.35
1019.39 1019.63 1019.71 1019.67 1019.67 1019.75 1019.91 1019.99 1020.07 1020.23 1020.39 1020.43 1020.47 1020.55 1020.67 1020.79 1020.95 1020.95 1020.99 1021.07 1021.15 1021.31 1021.43 1021.59 1021.63 1021.51 1021.31 1021.15 1021.23 1021.27 1021.27 1021.35 1021.35 1021.47 1021.47 1021.43 1021.31 1021.31 1021.31 1021.23 1021.19 1021.11 1021.07 1020.99 1020.91 1020.83 1020.75 1020.67 1020.55 1020.43 1020.35 1020.35 1020.39 1020.35 1020.19 1020.15 1020.03 1019.91 1019.75 1019.59 1019.43 1019.31
1019.39 1019.55 1019.71 1019.83 1019.95 1020.11 1020.19 1020.27 1020.43 1020.59 1020.67 1020.71 1020.79 1020.83 1021.03 1021.07 1021.15 1021.11 1021.15 1021.23 1021.39 1021.47 1021.63 1021.79 1021.95 1021.87 1021.63 1021.43 1021.47 1021.55 1021.55 1021.55 1021.59 1021.63 1021.71 1021.63 1021.51 1021.43 1021.35 1021.39 1021.31 1021.27 1021.23 1021.15 1021.07 1020.99 1020.99 1020.95 1020.91 1020.79 1020.75 1020.67 1020.59 1020.51 1020.39 1020.27 1020.15 1019.99 1019.83 1019.67 1019.43 1019.27
1019.55 1019.59 1019.75 1019.95 1020.15 1020.31 1020.43 1020.51 1020.63 1020.79 1020.95 1020.99 1021.07 1021.19 1021.27 1021.27 1021.27 1021.31 1021.35 1021.39 1021.59 1021.67 1021.75 1021.95 1022.15 1022.19 1021.99 1021.71 1021.71 1021.87 1021.91 1021.99 1021.95 1021.95 1021.95 1021.79 1021.71 1021.59 1021.47 1021.47 1021.43 1021.39 1021.35 1021.27 1021.15 1021.07 1021.03 1020.99 1020.99 1020.99 1020.91 1020.83 1020.75 1020.67 1020.55 1020.39 1020.23 1020.07 1019.83 1019.67 1019.43 1019.27
1019.47 1019.67 1019.91 1020.15 1020.35 1020.47 1020.59 1020.75 1020.87 1021.07 1021.31 1021.43 1021.47 1021.59 1021.63 1021.59 1021.55 1021.51 1021.47 1021.43 1021.51 1021.71 1021.91 1022.15 1022.31 1022.39 1022.31 1022.11 1022.07 1022.23 1022.27 1022.27 1022.23 1022.19 1022.11 1022.03 1021.91 1021.83 1021.75 1021.63 1021.55 1021.47 1021.39 1021.31 1021.19 1021.11 1020.99 1020.99 1020.99 1020.99 1020.95 1020.87 1020.79 1020.75 1020.59 1020.43 1020.27 1020.11 1019.91 1019.71 1019.51 1019.35
1019.71 1019.95 1020.19 1020.43 1020.63 1020.71 1020.87 1021.03 1021.23 1021.35 1021.59 1021.87 1021.91 1021.83 1021.83 1021.83 1021.71 1021.59 1021.47 1021.55 1021.79 1022.07 1022.31 1022.43 1022.55 1022.63 1022.55 1022.39 1022.35 1022.43 1022.47 1022.51 1022.47 1022.47 1022.35 1022.35 1022.23 1022.11 1021.95 1021.83 1021.71 1021.59 1021.47 1021.39 1021.27 1021.15 1021.07 1020.99 1020.99 1021.03 1020.95 1020.79 1020.67 1020.55 1020.47 1020.31 1020.19 1019.99 1019.79 1019.59 1019.39 1019.23
1019.83 1020.23 1020.51 1020.75 1020.99 1021.11 1021.19 1021.35 1021.43 1021.51 1021.67 1021.99 1022.11 1022.23 1022.27 1022.19 1021.99 1021.87 1021.79 1021.91 1022.15 1022.43 1022.59 1022.71 1022.87 1022.87 1022.79 1022.67 1022.67 1022.71 1022.71 1022.71 1022.71 1022.63 1022.55 1022.43 1022.31 1022.19 1022.07 1021.95 1021.87 1021.75 1021.67 1021.51 1021.31 1021.23 1021.11 1020.99 1020.91 1020.87 1020.79 1020.71 1020.59 1020.39 1020.31 1020.23 1020.07 1019.87 1019.67 1019.39 1019.19 1018.99
1020.07 1020.43 1020.67 1020.87 1021.11 1021.27 1021.43 1021.55 1021.71 1021.87 1022.11 1022.35 1022.51 1022.59 1022.67 1022.59 1022.31 1022.15 1022.07 1022.07 1022.35 1022.67 1022.87 1023.03 1023.11 1023.03 1023.03 1022.99 1022.95 1022.95 1022.95 1022.91 1022.87 1022.79 1022.67 1022.51 1022.39 1022.31 1022.19 1022.11 1021.99 1021.83 1021.67 1021.47 1021.35 1021.23 1021.11 1021.07 1020.99 1020.91 1020.79 1020.67 1020.47 1020.35 1020.27 1020.15 1019.99 1019.75 1019.47 1019.19 1018.95 1018.71
1020.03 1020.43 1020.75 1021.03 1021.07 1021.27 1021.43 1021.59 1021.75 1021.95 1022.19 1022.47 1022.63 1022.75 1022.87 1022.71 1022.47 1022.35 1022.31 1022.35 1022.59 1022.95 1023.11 1023.19 1023.27 1023.23 1023.19 1023.19 1023.19 1023.19 1023.23 1023.15 1023.11 1022.99 1022.87 1022.71 1022.59 1022.43 1022.31 1022.15 1022.03 1021.83 1021.63 1021.47 1021.35 1021.23 1021.11 1021.03 1020.91 1020.75 1020.63 1020.51 1020.43 1020.39 1020.27 1020.07 1019.91 1019.67 1019.35 1018.99 1018.67 1018.39
1019.99 1020.47 1020.83 1020.99 1021.11 1021.23 1021.39 1021.55 1021.87 1022.07 1022.27 1022.51 1022.67 1022.87 1022.99 1022.79 1022.75 1022.75 1022.63 1022.55 1022.79 1023.07 1023.23 1023.27 1023.35 1023.35 1023.35 1023.39 1023.39 1023.51 1023.47 1023.39 1023.31 1023.19 1022.99 1022.87 1022.71 1022.59 1022.43 1022.31 1022.15 1021.99 1021.79 1021.59 1021.39 1021.23 1021.11 1020.95 1020.67 1020.55 1020.55 1020.59 1020.55 1020.39 1020.27 1020.07 1019.83 1019.63 1019.31 1018.91 1018.47 1018.07
1020.23 1020.71 1020.95 1021.27 1021.47 1021.59 1021.63 1021.75 1021.95 1022.15 1022.51 1022.71 1022.83 1023.03 1023.15 1023.11 1023.15 1023.03 1022.87 1022.71 1022.91 1023.23 1023.35 1023.39 1023.51 1023.51 1023.51 1023.55 1023.59 1023.59 1023.55 1023.47 1023.39 1023.27 1023.15 1023.03 1022.91 1022.79 1022.63 1022.51 1022.31 1022.07 1021.87 1021.71 1021.55 1021.31 1021.11 1020.83 1020.51 1020.39 1020.35 1020.31 1020.31 1020.31 1020.07 1019.91 1019.63 1019.35 1019.11 1018.79 1018.43 1017.95
1020.43 1020.71 1021.11 1021.47 1021.71 1021.83 1021.87 1021.95 1022.11 1022.47 1022.79 1022.87 1023.07 1023.35 1023.47 1023.47 1023.39 1023.15 1022.95 1022.95 1023.15 1023.39 1023.55 1023.67 1023.71 1023.67 1023.71 1023.75 1023.87 1023.87 1023.83 1023.75 1023.67 1023.55 1023.39 1023.27 1023.11 1022.95 1022.79 1022.63 1022.39 1022.15 1021.91 1021.67 1021.47 1021.23 1020.95 1020.71 1020.43 1020.23 1020.15 1020.11 1020.03 1020.07 1019.95 1019.67 1019.35 1018.99 1018.67 1018.39 1018.11 1017.71
1020.27 1020.71 1021.31 1021.63 1021.83 1022.07 1022.23 1022.19 1022.39 1022.75 1022.99 1023.11 1023.35 1023.55 1023.63 1023.71 1023.63 1023.35 1023.19 1023.23 1023.47 1023.71 1023.87 1023.99 1024.11 1024.11 1024.11 1024.19 1024.27 1024.23 1024.15 1023.99 1023.87 1023.71 1023.63 1023.47 1023.23 1023.03 1022.83 1022.55 1022.31 1022.07 1021.79 1021.59 1021.35 1021.15 1020.87 1020.63 1020.31 1020.15 1019.99 1019.91 1019.83 1019.75 1019.71 1019.43 1019.07 1018.75 1018.31 1017.99 1017.67 1017.35
1020.39 1020.91 1021.35 1021.83 1022.15 1022.39 1022.51 1022.63 1022.95 1023.19 1023.23 1023.35 1023.55 1023.71 1023.91 1023.95 1023.79 1023.51 1023.47 1023.59 1023.87 1024.07 1024.23 1024.35 1024.39 1024.47 1024.47 1024.51 1024.47 1024.39 1024.31 1024.19 1024.03 1023.87 1023.71 1023.43 1023.15 1022.95 1022.71 1022.47 1022.23 1021.95 1021.75 1021.59 1021.43 1021.11 1020.83 1020.55 1020.27 1020.11 1019.95 1019.83 1019.71 1019.59 1019.51 1019.23 1018.87 1018.47 1018.03 1017.67 1017.35 1016.99
1020.63 1021.27 1021.75 1021.99 1022.27 1022.51 1022.79 1023.27 1023.51 1023.23 1023.27 1023.43 1023.71 1023.95 1024.15 1024.07 1023.83 1023.75 1023.83 1023.99 1024.19 1024.39 1024.51 1024.59 1024.63 1024.71 1024.71 1024.63 1024.55 1024.51 1024.39 1024.23 1023.99 1023.83 1023.55 1023.23 1023.07 1022.87 1022.67 1022.35 1022.11 1021.95 1021.87 1021.67 1021.43 1021.11 1020.79 1020.47 1020.23 1019.99 1019.79 1019.67 1019.51 1019.35 1019.27 1018.99 1018.63 1018.15 1017.67 1017.27 1016.95 1016.59
1020.71 1021.19 1021.67 1022.23 1022.51 1022.83 1023.23 1023.55 1023.39 1023.11 1023.31 1023.63 1023.95 1024.23 1024.27 1024.11 1023.99 1024.07 1024.23 1024.31 1024.51 1024.71 1024.75 1024.79 1024.79 1024.83 1024.79 1024.75 1024.63 1024.51 1024.35 1024.15 1024.03 1023.83 1023.51 1023.31 1023.11 1022.95 1022.67 1022.43 1022.23 1021.99 1021.75 1021.51 1021.27 1020.99 1020.51 1020.03 1019.95 1019.75 1019.55 1019.43 1019.31 1019.19 1019.03 1018.71 1018.35 1017.83 1017.31 1016.79 1016.43 1016.07
1020.79 1021.51 1022.11 1022.43 1022.71 1023.19 1023.67 1023.71 1023.39 1023.15 1023.47 1023.87 1024.23 1024.31 1024.23 1024.15 1024.15 1024.27 1024.51 1024.59 1024.71 1024.91 1024.91 1024.91 1024.95 1024.99 1024.99 1024.87 1024.79 1024.67 1024.55 1024.39 1024.19 1023.95 1023.59 1023.43 1023.19 1022.95 1022.67 1022.39 1022.07 1021.75 1021.47 1021.19 1020.99 1020.79 1020.31 1019.75 1019.59 1019.55 1019.35 1019.15 1019.11 1019.03 1018.75 1018.43 1018.11 1017.63 1017.03 1016.47 1015.95 1015.67
1021.43 1021.99 1022.35 1022.83 1023.23 1023.67 1023.91 1023.83 1023.39 1023.27 1023.71 1024.07 1024.23 1024.23 1024.19 1024.35 1024.47 1024.59 1024.79 1024.87 1024.99 1025.11 1025.07 1025.19 1025.23 1025.31 1025.27 1025.19 1025.15 1024.99 1024.79 1024.63 1024.35 1023.95 1023.71 1023.59 1023.19 1022.87 1022.55 1022.15 1021.63 1021.31 1021.15 1020.99 1020.71 1020.51 1020.31 1019.63 1019.11 1019.15 1019.03 1018.79 1018.67 1018.67 1018.51 1018.15 1017.75 1017.19 1016.67 1016.03 1015.51 1015.15
1021.79 1022.27 1022.67 1023.03 1023.63 1023.99 1024.07 1023.83 1023.47 1023.51 1023.99 1024.15 1024.27 1024.31 1024.55 1024.83 1025.03 1025.07 1025.23 1025.19 1025.23 1025.27 1025.31 1025.39 1025.47 1025.51 1025.47 1025.43 1025.35 1025.19 1024.99 1024.67 1024.31 1023.95 1023.67 1023.47 1023.19 1022.75 1022.15 1021.79 1021.51 1021.07 1020.79 1020.63 1020.51 1020.11 1019.91 1019.35 1018.71 1018.39 1018.43 1018.35 1018.19 1018.19 1018.11 1017.83 1017.43 1016.91 1016.19 1015.67 1015.07 1014.63
1022.23 1022.67 1023.07 1023.47 1023.95 1024.19 1024.15 1023.79 1023.87 1024.19 1024.19 1024.31 1024.51 1024.87 1025.19 1025.43 1025.51 1025.55 1025.59 1025.51 1025.51 1025.51 1025.63 1025.67 1025.75 1025.75 1025.63 1025.55 1025.39 1025.15 1024.87 1024.51 1024.11 1023.91 1023.75 1023.43 1023.03 1022.43 1021.95 1021.75 1021.55 1021.23 1020.55 1020.11 1019.95 1019.71 1019.39 1019.03 1018.47 1017.99 1017.71 1017.71 1017.59 1017.55 1017.55 1017.47 1017.19 1016.59 1015.95 1015.55 1015.07 1014.51
1022.43 1023.03 1023.59 1024.03 1024.35 1024.43 1024.35 1024.07 1024.07 1024.31 1024.43 1024.59 1025.07 1025.51 1025.79 1025.87 1025.83 1025.87 1025.87 1025.79 1025.79 1025.83 1025.91 1025.87 1025.71 1025.71 1025.59 1025.47 1025.31 1024.99 1024.83 1024.55 1024.31 1023.99 1023.67 1023.27 1022.75 1022.47 1022.15 1021.91 1021.59 1021.03 1020.27 1019.63 1019.43 1019.23 1018.87 1018.63 1018.23 1017.71 1017.35 1017.11 1017.03 1016.91 1016.99 1016.87 1016.63 1016.11 1015.83 1015.43 1014.87 1014.39
1023.23 1023.75 1024.23 1024.59 1024.87 1024.91 1024.91 1024.59 1024.47 1024.51 1024.71 1025.23 1025.83 1026.11 1026.15 1026.15 1026.11 1026.11 1026.07 1025.99 1025.95 1025.87 1025.83 1025.71 1025.71 1025.71 1025.59 1025.43 1025.19 1025.03 1024.83 1024.59 1024.35 1024.07 1023.75 1023.39 1022.99 1022.63 1022.27 1021.79 1021.39 1020.83 1020.15 1019.47 1019.03 1018.75 1018.43 1018.03 1017.79 1017.35 1016.91 1016.63 1016.35 1016.27 1016.23 1016.23 1015.87 1015.59 1015.51 1015.31 1014.71 1014.07
1023.39 1023.99 1024.47 1024.87 1025.19 1025.43 1025.47 1025.19 1025.03 1025.11 1025.31 1025.91 1026.35 1026.35 1026.31 1026.27 1026.27 1026.23 1026.11 1026.11 1026.07 1026.11 1026.07 1026.03 1026.03 1025.95 1025.71 1025.47 1025.35 1025.27 1024.99 1024.55 1024.19 1023.95 1023.75 1023.31 1022.91 1022.55 1022.11 1021.59 1021.19 1020.83 1020.15 1019.55 1018.83 1018.27 1017.95 1017.67 1017.31 1016.91 1016.47 1016.19 1015.95 1015.71 1015.51 1015.35 1015.15 1015.03 1015.07 1014.91 1014.39 1013.83
1023.63 1024.35 1024.87 1025.27 1025.59 1025.83 1025.95 1025.71 1025.67 1025.71 1025.91 1026.43 1026.59 1026.55 1026.47 1026.51 1026.59 1026.51 1026.43 1026.43 1026.43 1026.47 1026.43 1026.35 1026.27 1026.07 1025.83 1025.67 1025.47 1025.27 1024.95 1024.55 1024.27 1024.03 1023.67 1023.31 1023.03 1022.55 1022.07 1021.55 1021.11 1020.75 1020.27 1019.63 1018.79 1018.11 1017.55 1017.19 1016.95 1016.47 1016.11 1015.79 1015.63 1015.35 1015.03 1014.71 1014.47 1014.35 1014.39 1014.23 1013.83 1013.27
1023.87 1024.55 1025.15 1025.59 1025.87 1026.03 1026.27 1026.23 1026.31 1026.31 1026.55 1026.79 1026.83 1026.79 1026.95 1027.07 1026.99 1026.83 1026.79 1026.79 1026.75 1026.75 1026.67 1026.55 1026.39 1026.11 1025.83 1025.79 1025.59 1025.35 1024.95 1024.59 1024.43 1024.11 1023.67 1023.47 1023.23 1022.83 1022.39 1021.79 1021.35 1020.99 1020.43 1019.87 1019.19 1018.31 1017.59 1016.99 1016.59 1016.11 1015.67 1015.43 1015.19 1014.91 1014.55 1014.27 1013.95 1013.71 1013.67 1013.59 1013.27 1012.95
1024.27 1024.71 1025.31 1025.91 1026.27 1026.47 1026.71 1026.75 1026.75 1026.83 1026.95 1026.95 1027.11 1027.31 1027.35 1027.27 1027.19 1027.03 1026.95 1026.99 1026.99 1026.91 1026.75 1026.55 1026.23 1025.95 1025.95 1025.87 1025.67 1025.55 1025.31 1025.07 1024.75 1024.39 1023.95 1023.67 1023.31 1022.91 1022.47 1021.99 1021.51 1021.03 1020.59 1020.15 1019.39 1018.55 1017.79 1017.11 1016.55 1015.91 1015.39 1015.07 1014.83 1014.55 1014.19 1013.91 1013.59 1013.47 1013.43 1013.35 1012.95 1012.51
1024.79 1025.11 1025.43 1026.03 1026.63 1027.03 1027.07 1027.15 1027.07 1027.11 1027.07 1027.39 1027.59 1027.63 1027.59 1027.55 1027.27 1027.27 1027.23 1027.31 1027.11 1026.91 1026.63 1026.55 1026.27 1026.15 1025.95 1025.79 1025.67 1025.55 1025.35 1025.07 1024.83 1024.51 1024.19 1023.83 1023.47 1023.07 1022.67 1022.35 1021.95 1021.31 1020.87 1020.31 1019.59 1018.87 1018.19 1017.39 1016.63 1015.87 1015.27 1015.07 1014.67 1014.27 1014.03 1013.87 1013.67 1013.47 1013.27 1012.95 1012.47 1012.11
1025.07 1025.43 1025.71 1026.31 1026.95 1027.27 1027.31 1027.27 1027.27 1027.47 1027.75 1027.87 1027.95 1027.99 1027.95 1027.71 1027.55 1027.59 1027.51 1027.39 1027.11 1026.87 1026.63 1026.59 1026.47 1026.39 1026.19 1025.99 1025.91 1025.71 1025.39 1025.15 1024.91 1024.71 1024.31 1024.03 1023.95 1023.63 1022.99 1022.51 1021.95 1021.47 1021.07 1020.59 1019.83 1019.11 1018.43 1017.59 1016.75 1016.11 1015.63 1015.11 1014.83 1014.43 1014.35 1014.15 1013.83 1013.43 1013.03 1012.51 1012.07 1011.79
1025.75 1026.03 1026.23 1026.67 1027.19 1027.55 1027.51 1027.47 1027.55 1027.99 1028.11 1028.19 1028.31 1028.15 1028.15 1028.03 1027.95 1027.83 1027.55 1027.19 1026.95 1026.91 1026.67 1026.71 1026.71 1026.63 1026.43 1026.19 1025.95 1025.71 1025.51 1025.27 1025.03 1024.67 1024.07 1023.71 1023.75 1023.59 1023.19 1022.51 1021.83 1021.39 1021.15 1020.95 1020.31 1019.63 1018.95 1018.11 1016.99 1015.83 1015.87 1015.59 1015.31 1015.23 1014.75 1014.31 1013.83 1013.19 1012.55 1012.11 1011.75 1011.35
1026.23 1026.47 1026.67 1026.95 1027.35 1027.51 1027.47 1027.43 1027.87 1028.19 1028.35 1028.43 1028.39 1028.39 1028.55 1028.47 1028.15 1027.59 1027.31 1027.07 1026.99 1026.95 1027.07 1027.11 1026.99 1026.79 1026.59 1026.35 1026.03 1025.59 1024.99 1024.71 1024.59 1024.35 1024.07 1023.07 1022.67 1022.95 1022.79 1022.67 1022.07 1021.55 1021.27 1020.79 1020.07 1019.87 1019.19 1018.39 1017.27 1016.47 1015.83 1015.27 1014.79 1014.27 1014.15 1013.91 1013.55 1013.03 1012.31 1011.63 1011.27 1011.19
1026.83 1026.87 1026.87 1027.07 1027.43 1027.55 1027.51 1027.87 1028.27 1028.47 1028.51 1028.59 1028.71 1028.75 1028.83 1028.55 1028.07 1027.59 1027.39 1027.31 1027.47 1027.51 1027.63 1027.43 1027.19 1026.99 1026.83 1026.59 1026.23 1025.87 1025.31 1024.35 1023.59 1023.67 1023.59 1023.27 1022.67 1022.03 1021.91 1022.03 1021.79 1021.39 1021.15 1020.99 1019.91 1018.95 1018.71 1017.83 1017.11 1016.75 1016.15 1015.43 1014.75 1014.11 1013.47 1012.99 1012.67 1012.31 1011.91 1011.47 1011.11 1010.51
1026.75 1026.95 1027.15 1027.31 1027.63 1027.71 1027.95 1028.27 1028.31 1028.55 1028.83 1028.95 1029.07 1028.99 1028.95 1028.63 1028.27 1028.19 1028.07 1028.07 1028.07 1027.91 1027.75 1027.63 1027.47 1027.23 1026.87 1026.63 1026.39 1026.15 1025.83 1025.47 1024.55 1022.83 1022.47 1023.03 1022.87 1022.55 1021.95 1021.31 1021.03 1020.95 1020.87 1020.43 1020.03 1019.23 1018.07 1017.39 1016.71 1016.07 1015.67 1015.23 1014.71 1014.15 1013.51 1012.83 1012.19 1011.63 1011.31 1010.99 1010.91 1010.07
1026.55 1026.99 1027.27 1027.47 1027.67 1027.87 1028.03 1028.39 1028.59 1028.83 1029.27 1029.27 1029.31 1029.23 1029.15 1029.03 1028.99 1029.03 1028.91 1028.63 1028.35 1028.19 1028.07 1027.87 1027.59 1027.35 1027.15 1026.99 1026.79 1026.59 1026.47 1026.23 1025.79 1025.19 1023.39 1021.55 1021.79 1022.23 1022.07 1021.55 1021.11 1020.59 1020.03 1019.67 1019.43 1019.19 1018.67 1017.75 1016.83 1016.07 1015.35 1014.87 1014.43 1013.87 1013.27 1012.59 1011.83 1011.07 1010.47 1010.27 1009.91 1009.39
1026.79 1027.03 1027.23 1027.43 1027.71 1028.11 1028.31 1028.79 1029.03 1029.23 1029.47 1029.55 1029.55 1029.51 1029.59 1029.59 1029.59 1029.47 1029.15 1028.83 1028.79 1028.71 1028.39 1028.07 1027.91 1027.79 1027.67 1027.51 1027.35 1027.23 1027.03 1026.75 1026.47 1025.99 1025.39 1024.35 1022.43 1020.71 1020.07 1020.31 1020.59 1020.55 1020.19 1019.79 1019.15 1018.43 1017.95 1017.59 1017.07 1016.39 1015.51 1014.55 1013.83 1013.35 1012.83 1012.19 1011.27 1010.55 1010.15 1010.11 1009.47 1008.87
1026.95 1027.11 1027.35 1027.71 1028.19 1028.51 1028.95 1029.27 1029.31 1029.43 1029.71 1029.79 1029.91 1029.87 1029.87 1029.75 1029.63 1029.47 1029.19 1028.99 1028.95 1028.83 1028.63 1028.43 1028.35 1028.27 1028.15 1027.99 1027.87 1027.59 1027.31 1026.99 1026.63 1026.27 1025.83 1025.23 1024.39 1023.47 1022.31 1020.75 1019.83 1019.79 1020.07 1019.75 1019.27 1018.51 1017.63 1016.91 1016.47 1016.07 1015.43 1014.63 1013.83 1013.11 1012.39 1011.75 1011.19 1010.51 1009.87 1009.27 1008.75 1008.11
1027.23 1027.43 1027.71 1028.31 1028.55 1028.99 1029.23 1029.43 1029.35 1029.63 1029.91 1029.95 1029.99 1029.91 1029.79 1029.63 1029.55 1029.43 1029.07 1028.95 1028.83 1028.79 1028.75 1028.67 1028.67 1028.59 1028.51 1028.31 1028.07 1027.75 1027.47 1027.11 1026.71 1026.31 1025.75 1025.15 1024.55 1023.87 1022.79 1021.59 1020.83 1020.35 1019.83 1019.79 1019.47 1018.91 1017.87 1016.79 1016.19 1015.79 1015.11 1014.43 1013.79 1013.03 1012.51 1011.99 1011.31 1010.67 1009.91 1009.07 1008.27 1007.63
Wind_Speed
5 5 6 5 6 6 6 5 5 5 6 6 6 7 6 6 5 5 5 5 4 3 4 3 3 3 2 2 1 1 1 1 2 3 3 4 4 4 4 4 5 5 5 5 6 6 7 7 6 7 8 7 7 7 7 7 7 7 8 7 7 7
5 5 5 5 5 5 5 5 5 6 5 5 6 6 5 5 5 5 5 4 4 3 3 3 2 2 2 1 2 1 1 2 2 3 3 4 4 4 4 4 4 5 5 5 6 7 7 7 7 6 6 6 6 6 6 6 6 7 8 8 7 7
5 5 5 5 5 4 4 4 5 4 5 5 5 6 6 6 5 5 5 4 4 5 5 4 3 3 2 2 2 2 3 3 3 3 3 4 4 3 4 4 5 5 5 5 6 6 7 7 7 5 5 5 6 7 7 7 7 8 8 7 9 8
6 5 4 4 4 5 5 4 5 5 5 5 5 5 5 5 5 5 5 5 5 6 5 5 4 4 3 4 4 5 4 4 4 4 4 4 4 3 4 4 4 4 5 5 5 6 6 7 7 7 6 6 7 7 6 6 7 7 8 7 8 8
5 5 5 5 5 5 5 5 5 5 5 5 5 6 6 5 5 5 5 5 5 6 5 5 5 5 5 6 6 7 6 6 5 5 5 4 4 4 3 4 4 5 5 5 5 5 5 6 7 6 7 7 8 9 8 7 8 8 8 8 9 8
4 5 5 5 5 5 5 5 5 5 5 5 5 6 6 6 5 5 5 5 6 6 6 6 5 6 6 6 6 7 7 6 5 5 5 5 4 5 5 5 5 4 4 5 5 5 5 5 6 7 7 7 8 8 9 8 8 8 8 8 9 8
5 4 5 5 5 4 5 5 5 6 6 5 5 5 5 4 4 5 5 6 8 8 7 7 6 6 7 6 6 6 6 5 5 5 5 5 5 5 5 5 4 5 5 4 5 6 6 5 6 7 8 7 7 8 8 9 9 8 9 9 9 9
4 5 5 4 4 4 5 5 5 6 6 6 5 5 5 5 5 5 7 7 7 6 7 6 6 6 6 6 6 6 5 5 5 5 4 5 5 5 4 5 5 5 6 5 6 6 6 6 5 6 7 8 7 7 7 7 8 9 9 9 9 9
6 5 5 4 4 4 4 5 5 6 6 6 6 5 4 4 4 5 6 6 6 6 6 6 6 5 6 6 6 5 5 5 4 4 5 4 4 5 5 4 5 4 5 6 5 5 6 6 5 6 6 7 8 8 7 8 8 8 9 8 9 9
7 6 5 5 5 5 5 5 5 5 5 5 4 4 3 2 3 5 6 6 7 6 6 5 5 5 6 6 5 5 5 5 5 6 5 5 5 5 5 5 6 5 4 5 4 5 5 5 5 5 6 6 7 7 7 8 8 8 9 9 9 9
7 7 6 5 6 6 6 5 5 5 5 5 4 4 4 3 4 5 6 6 7 6 5 4 4 5 5 5 5 6 6 5 5 5 5 5 5 5 5 6 6 6 6 5 4 5 4 5 5 4 4 6 7 7 9 9 9 9 10 11 11 10
8 7 6 6 6 5 5 5 5 5 5 5 4 4 4 4 5 5 5 7 6 5 5 5 5 5 5 5 6 6 6 5 6 6 6 6 6 6 6 6 6 5 5 7 7 6 5 5 5 5 8 7 7 8 8 8 9 9 10 11 11 11
7 6 6 5 5 5 5 5 5 5 5 5 5 5 5 4 3 4 6 7 6 6 5 5 5 5 6 6 6 6 7 7 7 7 7 7 6 6 6 6 6 5 5 5 6 6 6 6 6 10 10 10 11 8 8 8 9 9 10 10 11 12
8 7 6 5 5 4 4 5 5 5 5 4 5 4 4 3 4 5 6 7 6 6 6 6 6 6 6 6 7 7 7 6 7 5 6 7 6 6 6 6 5 6 6 6 6 6 6 6 9 13 13 12 13 11 8 8 9 9 9 9 10 11
8 7 6 5 4 4 5 5 5 5 4 5 3 3 3 3 3 5 6 6 6 6 5 5 5 5 5 6 5 5 5 4 4 3 4 4 6 6 6 6 6 6 6 6 7 7 7 7 10 12 14 14 14 15 11 8 9 10 10 10 10 11
7 7 6 5 5 5 5 5 4 4 4 4 2 2 1 1 3 5 5 5 5 5 4 4 4 4 4 5 5 5 6 4 5 4 5 4 5 5 6 6 8 7 6 7 8 9 8 8 10 14 15 14 14 14 12 9 10 10 11 11 11 11
9 8 7 6 6 5 4 4 3 4 4 3 3 1 1 2 3 5 5 4 4 4 4 4 4 4 4 5 4 3 4 6 4 5 4 4 4 5 6 6 7 7 5 8 8 8 9 8 12 14 14 14 14 15 13 9 10 10 11 11 11 11
10 9 8 6 6 4 3 3 3 4 5 3 2 2 1 2 4 5 4 4 4 4 4 4 5 5 5 6 5 5 5 5 5 7 5 4 5 5 5 5 5 7 8 6 6 8 11 10 11 13 14 14 13 15 9 8 9 10 11 11 11 11
10 9 8 6 5 5 3 3 3 5 5 4 2 2 3 4 5 5 5 4 4 4 4 5 5 5 6 5 6 6 6 6 7 6 4 6 6 5 6 7 7 6 7 8 7 7 10 11 11 12 15 14 13 11 7 8 8 10 11 12 11 11
10 8 8 8 6 4 2 2 3 5 5 4 3 3 4 5 5 5 4 4 4 4 4 4 4 4 4 4 5 6 6 6 5 5 5 6 7 8 8 7 8 7 6 7 9 8 9 12 14 13 13 15 12 9 8 8 8 10 11 11 12 10
9 9 8 7 6 4 2 2 4 5 5 4 4 4 5 5 4 4 3 3 3 3 2 2 2 3 3 4 5 5 6 6 5 5 5 5 6 8 6 6 8 10 9 7 8 12 12 11 14 16 14 14 13 9 6 8 8 10 11 11 12 11
10 8 7 6 5 3 2 3 4 3 5 5 5 5 5 4 3 3 3 3 3 2 2 2 2 3 4 5 5 6 5 5 6 6 7 7 6 7 7 8 8 11 12 10 8 9 10 11 12 15 19 16 16 12 8 6 9 11 12 11 11 12
8 8 7 5 4 3 3 2 5 5 6 6 5 5 4 4 4 4 4 4 4 4 3 3 4 6 6 5 7 6 6 6 7 8 7 9 7 7 9 10 9 10 12 11 10 10 10 10 12 13 18 18 17 17 13 8 10 11 10 11 13 12
9 9 8 6 5 4 4 2 4 6 6 6 5 5 4 4 5 5 5 5 5 6 6 7 7 7 6 6 6 8 8 6 6 6 7 6 7 9 11 10 9 9 11 12 11 10 11 11 14 13 15 18 18 17 17 10 10 11 10 11 12 13
8 8 7 5 5 5 4 4 6 5 5 6 6 5 5 6 6 7 7 6 7 8 8 8 9 8 6 6 7 7 9 8 7 8 7 7 8 9 11 11 10 10 11 12 11 11 11 11 11 15 15 16 18 19 18 18 15 13 10 11 13 13
8 8 7 5 5 5 5 5 6 6 6 7 5 5 6 6 7 7 6 7 7 8 7 8 7 6 6 6 7 7 8 8 8 8 5 6 8 8 10 10 10 11 12 13 14 14 13 12 11 13 17 16 18 18 19 19 19 18 12 11 12 12
9 8 7 6 6 6 6 5 6 7 7 5 5 5 6 6 6 6 6 6 7 7 7 7 6 6 4 6 7 7 7 8 8 8 7 7 7 8 9 9 9 10 11 12 14 14 14 13 12 13 16 20 18 18 19 19 20 18 17 12 11 12
8 8 8 7 6 6 5 5 5 7 5 4 5 6 6 6 6 6 6 6 6 6 6 7 5 4 5 5 5 5 6 6 7 7 8 7 7 7 8 10 10 10 12 13 13 14 14 15 14 15 15 14 15 14 15 17 16 16 14 14 14 19
7 7 7 7 5 5 5 6 6 5 5 6 6 6 6 5 6 5 5 5 6 5 4 5 5 6 6 5 5 5 5 5 6 7 8 7 7 8 8 9 10 11 10 12 13 13 15 15 15 15 14 12 12 11 10 9 9 13 16 14 12 13
7 7 7 6 5 5 5 5 5 6 6 5 5 5 5 5 4 4 4 5 4 4 4 4 7 7 6 6 6 7 6 5 5 7 8 7 7 9 10 9 10 10 10 11 13 15 14 16 15 15 15 14 13 14 14 14 14 14 12 13 13 12
7 7 7 6 5 5 5 4 5 6 6 5 5 5 5 4 4 3 3 2 2 3 4 4 5 5 6 7 7 6 6 7 7 8 10 9 7 7 9 11 13 12 11 11 13 15 15 16 18 17 15 21 26 23 19 16 16 15 15 17 24 19
7 7 7 6 5 5 4 5 5 5 4 5 5 5 4 4 3 2 2 3 3 4 5 5 5 6 6 6 7 9 9 9 12 11 10 12 12 15 18 17 14 14 14 15 14 13 16 16 18 27 36 36 35 36 34 30 29 28 24 26 32 22
6 6 6 5 5 5 5 5 4 4 5 5 5 4 4 4 3 3 3 4 4 5 5 5 5 5 5 6 7 7 9 12 10 11 16 18 20 23 23 21 23 26 25 18 17 19 28 32 33 33 33 34 34 36 36 35 33 32 31 31 24 16
5 5 5 5 5 5 4 4 4 5 4 4 4 4 3 4 3 3 3 3 4 5 4 4 5 6 6 6 6 6 8 9 12 16 11 9 12 18 23 26 26 24 22 24 22 20 18 24 29 32 32 33 34 34 34 34 35 35 34 32 30 18
5 5 5 5 5 4 4 5 4 4 3 3 3 3 2 3 3 2 3 3 3 4 5 5 4 5 5 6 7 7 7 8 10 12 16 19 17 17 17 20 21 22 23 24 23 24 22 25 29 34 35 35 34 34 32 33 35 34 34 32 20 15
5 5 4 5 5 4 4 3 1 2 2 2 2 2 2 2 2 3 2 2 4 4 4 4 4 5 6 6 7 7 8 9 9 11 13 15 18 20 17 12 11 14 19 22 25 28 28 27 28 30 32 34 33 33 31 29 25 31 33 27 19 16
5 4 5 5 4 3 2 1 0 1 1 1 2 2 1 1 2 2 3 5 4 3 4 4 4 5 6 6 7 7 8 9 10 10 11 12 14 16 17 17 16 15 17 18 20 25 30 30 29 28 29 31 31 31 30 29 19 18 16 16 13 13
5 5 4 4 3 3 2 1 1 2 0 0 1 1 1 1 1 1 1 2 2 2 3 4 4 5 6 7 7 8 8 9 10 11 11 12 13 13 15 16 15 15 19 26 23 24 27 31 32 29 30 29 30 29 29 19 16 15 15 15 14 13
Wind_Direction
80 82 84 80 77 74 75 71 69 70 65 64 69 71 63 58 49 53 50 45 46 42 44 49 49 44 36 25 350 319 294 306 312 315 315 307 303 298 300 299 300 298 297 292 289 291 293 297 300 301 293 297 293 290 287 283 281 276 272 269 269 271
91 89 96 94 89 86 82 82 80 76 73 77 82 81 80 74 68 65 65 52 53 49 67 60 63 65 59 38 30 29 32 13 349 342 328 329 325 316 316 308 307 305 302 300 298 296 296 291 288 285 284 290 286 286 282 285 288 284 279 279 273 276
110 101 97 93 89 88 86 87 81 82 81 80 78 85 81 74 68 68 63 62 55 54 48 45 44 55 62 73 61 52 45 34 14 11 350 326 315 324 317 316 316 311 308 306 303 302 298 296 295 295 292 285 282 283 284 286 283 280 279 279 278 270
115 110 98 100 101 92 90 85 85 78 76 78 82 81 71 77 69 65 72 67 62 54 46 37 30 28 42 61 56 44 39 30 22 7 344 334 333 338 324 323 323 314 313 308 305 303 300 299 303 303 300 295 294 290 287 289 286 282 280 280 279 275
115 109 105 100 94 91 88 83 79 76 74 72 70 77 73 72 72 69 70 69 62 59 53 44 30 20 32 48 44 33 27 20 13 10 353 348 345 341 343 336 326 322 319 309 306 308 306 307 306 308 305 300 295 292 293 291 289 285 284 281 277 279
119 121 114 105 95 86 82 80 75 69 59 60 64 64 60 59 59 65 71 74 69 62 56 46 31 25 26 40 38 29 20 9 3 359 350 352 345 348 347 340 333 325 316 309 306 303 304 302 304 302 297 294 293 293 292 292 289 288 285 283 283 282
131 117 106 98 92 85 80 73 70 67 61 53 56 58 57 60 62 68 68 65 61 51 47 39 32 28 30 36 34 27 17 8 1 359 353 354 351 349 340 336 336 322 320 317 315 313 311 311 312 308 304 298 295 292 291 291 291 288 284 282 283 284
120 115 111 101 92 92 85 80 77 76 71 60 45 48 47 47 49 56 59 57 60 55 47 40 32 27 27 29 31 23 15 6 2 354 352 351 341 337 335 335 331 329 319 314 310 305 302 302 301 297 294 296 295 287 280 279 281 283 281 280 276 273
133 118 107 101 92 82 77 77 71 71 70 60 50 44 42 36 54 63 72 71 68 59 47 38 30 23 22 25 22 17 12 9 2 354 352 343 333 339 335 331 321 319 311 302 304 303 302 301 297 298 300 300 299 296 293 291 284 278 276 274 271 269
134 129 123 115 106 99 92 80 77 76 70 70 61 53 43 26 55 71 73 71 65 55 41 36 22 24 24 20 19 12 10 3 3 357 346 346 344 342 339 331 329 316 305 305 301 298 301 300 295 289 286 285 295 300 293 290 288 285 281 277 272 269
144 138 130 123 118 111 103 101 95 93 87 74 63 54 35 23 48 62 68 68 63 49 36 33 19 22 22 18 16 13 8 4 354 348 345 349 347 341 339 337 331 325 321 319 310 303 294 286 278 275 283 299 300 301 301 299 292 290 290 287 282 274
141 138 133 126 119 113 108 100 88 76 75 66 54 47 25 30 43 57 65 64 57 41 31 25 23 19 17 19 12 10 0 354 355 348 350 348 346 341 338 333 325 320 319 318 318 312 305 288 279 272 276 275 282 297 296 296 292 290 288 290 290 286
133 130 126 119 108 104 96 92 88 81 72 66 57 44 22 22 38 57 59 59 49 39 29 26 21 12 19 15 10 2 0 356 353 348 344 344 337 333 332 321 313 315 308 300 297 301 299 295 291 296 297 297 292 288 292 290 289 285 283 283 285 287
141 138 132 123 116 107 102 94 88 82 73 62 52 34 15 18 28 49 50 46 40 31 23 17 10 10 10 8 5 354 351 339 338 335 331 327 324 322 313 302 302 300 297 294 291 288 292 292 291 298 305 306 304 300 292 290 286 284 279 276 277 280
144 137 125 123 116 101 82 79 83 79 73 67 54 26 23 24 32 50 51 44 37 28 19 14 7 1 1 356 345 335 331 324 318 319 325 312 303 294 295 301 297 296 298 296 300 300 293 291 290 296 300 303 304 304 302 290 286 283 282 280 277 278
134 129 123 113 100 83 79 71 84 99 86 81 72 57 33 56 51 57 56 52 39 27 15 12 359 358 348 341 329 323 325 315 309 314 304 297 301 303 306 303 302 303 306 309 303 297 295 291 295 295 295 294 295 297 298 286 284 280 276 275 275 275
132 128 125 120 109 100 99 102 136 123 103 104 103 98 110 85 80 60 54 51 42 21 14 4 357 351 338 331 326 322 313 317 312 318 315 313 315 313 314 312 314 308 302 301 296 292 290 284 283 284 287 290 292 294 294 285 281 277 273 272 269 269
142 139 128 115 112 107 117 146 148 122 109 108 124 132 109 94 74 64 50 44 33 16 5 354 348 343 334 330 326 321 319 319 325 322 314 310 307 300 288 295 289 295 297 292 292 292 293 292 287 289 290 290 289 290 291 282 279 278 277 275 270 267
127 120 118 117 114 118 133 156 143 123 123 130 141 135 91 70 63 49 36 30 18 3 355 349 344 334 331 330 327 327 327 324 321 311 308 307 301 297 300 295 293 289 294 298 297 297 296 295 292 288 287 285 278 284 282 284 280 278 278 275 275 271
112 116 119 115 108 110 129 153 140 128 127 130 123 100 74 60 51 37 26 16 5 353 350 340 336 323 322 326 321 319 311 311 300 296 314 306 310 307 304 297 298 301 294 296 300 295 296 296 295 288 280 283 267 256 278 282 281 282 281 282 279 277
120 121 118 117 112 106 118 129 124 128 123 115 97 81 71 55 41 22 9 356 351 341 342 335 328 324 324 319 314 320 313 308 304 303 305 302 298 293 290 301 307 308 306 299 292 296 294 294 298 298 294 287 279 259 273 272 278 284 283 288 288 286
118 116 113 110 102 90 65 105 104 109 111 100 87 75 61 41 23 360 349 345 343 353 346 340 346 340 340 330 321 318 310 306 308 320 318 311 301 306 317 317 314 310 306 306 304 302 301 301 301 303 303 302 297 273 264 268 277 278 285 287 289 291
112 110 109 98 83 63 46 97 126 108 92 89 80 64 40 16 7 357 358 351 351 356 356 352 0 349 344 341 329 323 325 327 325 322 324 321 316 315 313 312 311 306 305 307 309 305 301 297 295 296 295 297 293 287 274 267 264 270 277 285 287 285
111 108 98 84 70 56 40 75 101 89 90 83 66 44 16 10 5 0 355 353 357 358 358 2 358 353 342 335 333 334 327 322 314 314 320 310 308 311 309 309 312 311 308 308 306 303 300 297 296 294 294 293 292 289 275 265 263 259 275 277 278 282
119 110 103 85 70 54 44 75 88 86 84 69 44 22 15 13 6 360 356 358 1 1 358 356 351 342 336 334 336 330 322 319 323 323 315 309 314 315 314 314 315 313 309 307 305 304 301 300 299 294 293 294 295 294 285 266 262 261 256 264 272 271
116 109 94 83 72 61 48 59 79 78 75 57 32 21 18 15 3 355 358 2 357 353 351 344 336 329 329 336 330 322 319 323 325 321 317 323 318 311 314 312 315 313 310 310 308 306 305 304 302 296 293 294 293 291 287 284 275 267 258 255 262 268
125 118 104 86 71 62 54 53 76 81 71 50 34 25 20 2 355 358 1 357 353 345 335 330 327 325 327 331 325 322 321 322 329 323 323 324 314 306 304 299 304 304 301 303 302 302 303 304 302 298 295 293 293 288 285 282 278 275 268 265 263 266
115 116 110 88 69 62 59 56 66 74 64 50 42 24 3 357 357 3 359 353 342 332 326 329 323 327 325 315 322 319 313 311 313 312 311 311 304 301 300 303 304 299 301 296 298 300 303 304 303 300 300 302 302 297 291 282 278 277 272 265 270 271
116 115 110 100 79 68 67 70 66 64 57 47 28 14 7 1 6 359 349 341 330 325 326 329 330 329 325 326 322 314 307 307 305 304 300 299 302 300 299 298 297 297 298 298 300 300 301 300 300 300 300 308 308 308 307 306 306 299 296 290 283 282
119 121 116 103 90 81 80 74 73 62 49 34 28 14 11 10 11 351 332 323 324 326 329 331 332 330 322 322 320 313 310 302 295 293 290 299 306 303 297 293 293 292 298 301 300 300 300 298 297 296 302 307 306 308 309 307 301 297 294 291 287 284
112 111 108 103 98 100 94 92 83 61 46 37 24 14 20 5 345 326 311 317 337 329 340 338 333 326 320 313 308 292 283 293 292 287 283 270 265 265 279 295 292 290 295 294 295 299 297 297 295 295 301 300 300 299 301 301 299 298 293 287 290 290
109 118 116 108 107 105 104 91 72 53 48 34 25 19 11 348 329 322 346 351 351 347 345 335 326 321 318 312 308 306 296 264 260 267 280 293 284 272 273 278 282 288 297 296 286 283 285 286 287 296 299 300 301 301 299 297 296 294 293 293 295 294
113 111 107 105 106 106 93 78 62 60 40 38 17 12 358 344 352 353 353 354 348 338 323 317 314 311 303 302 304 306 308 312 299 265 262 269 282 291 292 288 285 289 289 287 291 291 288 288 289 291 293 296 299 300 301 301 300 298 296 297 298 290
121 114 110 107 110 108 103 87 66 58 36 24 9 358 357 354 6 356 337 328 316 312 312 305 303 303 306 306 307 309 314 313 313 312 300 276 280 294 298 299 299 296 293 290 288 290 293 295 296 297 298 298 299 299 299 300 300 298 296 294 293 286
123 121 125 127 119 98 75 72 54 58 28 9 358 340 2 3 358 325 302 297 306 313 310 305 311 311 313 318 320 320 318 316 315 313 315 317 310 298 287 289 293 300 305 305 303 298 294 296 299 301 301 301 300 299 299 298 297 296 295 298 292 279
130 130 118 107 89 75 70 78 56 65 19 348 345 358 356 331 311 288 288 312 320 312 313 320 319 322 320 320 317 312 312 309 307 304 306 308 314 320 317 300 286 296 302 304 306 306 304 300 298 300 301 302 304 305 304 302 299 300 300 298 291 284
124 114 115 109 99 104 115 145 252 104 327 334 350 332 306 298 293 298 291 298 315 317 316 320 323 321 318 316 312 310 309 304 302 300 298 298 303 307 306 310 313 315 318 317 313 308 307 307 307 306 305 304 305 305 306 309 307 302 299 293 280 276
122 126 121 118 132 144 156 226 207 146 214 343 310 285 283 305 315 303 303 316 324 325 327 322 322 316 310 306 301 301 298 297 297 296 294 294 294 291 295 299 304 310 315 315 312 310 311 312 312 313 312 311 310 311 315 310 304 299 296 296 293 283